Location: Alpha Ridge Park
(39.3209°N, 76.9128°W)
Time: 00:05:52
(UTC-04:00)

S-56A Canister/Altair - Pass Details

Date: 26 May 2019
Orbit: 633 x 2499 km, 38.9° (Epoch: 16 June)

Event Time Altitude Azimuth Distance (km) Brightness Sun altitude
Rises 00:31:14 0° 216° (SW) 3,003 - -29.1°
Reaches altitude 10° 00:33:35 10° 204° (SSW) 2,196 - -29.2°
Maximum altitude 00:37:55 29° 144° (SE) 1,495 - -29.3°
Exits shadow 00:42:15 15° 92° (E) 2,472 10.0 -29.4°
Drops below altitude 10° 00:43:36 10° 86° (E) 2,919 10.5 -29.4°
Sets 00:47:13 0° 77° (ENE) 4,199 11.4 -29.5°
